Sheridan, WY

7:56 AM MST on February 19, 2017 (GMT -0700)
Sheridan County

Weather History for KSHR - November, 2013

Change the Weather History Date:

Tuesday, November 5, 2013

  Actual Average Record
Temperature  
Mean Temperature 29 °F 38 °F  
Max Temperature 40 °F 52 °F 78 °F (1975)
Min Temperature 17 °F 24 °F -5 °F (1973)
Degree Days  
Heating Degree Days 36 27  
Month to date heating degree days 150 131  
Since 1 July heating degree days 1012 1039  
Cooling Degree Days 0 0  
Month to date cooling degree days 0 0  
Year to date cooling degree days 592 419  
Moisture  
Dew Point 17 °F    
Average Humidity 63    
Maximum Humidity 92    
Minimum Humidity 33    
Precipitation  
Precipitation 0.00 in 0.03 in 0.58 in (1943)
Month to date precipitation 0.06 0.13  
Year to date precipitation 16.78 13.02  
Sea Level Pressure  
Sea Level Pressure 30.15 in    
Wind  
Wind Speed 5 mph (South)    
Max Wind Speed 15 mph    
Max Gust Speed 17 mph    
Visibility 10 miles    
Events      
T = Trace of Precipitation, MM = Missing Value Source: NWS Daily Summary

Daily Weather History Graph

Daily Weather History Graph

Search for Another Location

Airport or City:

Trip Planner

Search our weather history database for the weather conditions in past years. The results will help you decide how hot, cold, wet, or windy it might be!

Date:

Astronomy

Nov. 05, 2013 Rise Set
Actual Time 6:51 AM MST 4:50 PM MST
Civil Twilight 6:20 AM MST 5:21 PM MST
Nautical Twilight 5:46 AM MST 5:56 PM MST
Astronomical Twilight 5:11 AM MST 6:30 PM MST
Moon 9:13 AM MST (11/5) 6:51 PM MST (11/5)
Length of Visible Light 11h 00m
Length of Day
9h 58m
Waxing Crescent, 7% of the Moon is Illuminated
Nov 5
Waxing Crescent
Nov 9
First Quarter
Nov 17
Full
Nov 25
Last Quarter
Dec 2
New

Hourly Weather History & Observations

Time (MST) Temp. Windchill Dew Point Humidity Pressure Visibility Wind Dir Wind Speed Gust Speed Precip Events Conditions
12:02 AM 28.0 °F 21.7 °F 24.1 °F 85% 30.06 in 10.0 mi WNW 5.8 mph - N/A   Overcast
12:53 AM 27.0 °F - 21.9 °F 81% 30.15 in 10.0 mi Calm Calm - N/A   Scattered Clouds
1:16 AM 25.0 °F 18.1 °F 21.9 °F 88% 30.06 in 10.0 mi West 5.8 mph - N/A   Mostly Cloudy
1:53 AM 27.0 °F 19.5 °F 25.0 °F 92% 30.16 in 10.0 mi WNW 6.9 mph - N/A   Overcast
2:53 AM 27.0 °F 21.6 °F 24.1 °F 89% 30.16 in 10.0 mi WNW 4.6 mph - N/A   Overcast
3:53 AM 27.0 °F - 23.0 °F 85% 30.17 in 10.0 mi Calm Calm - N/A   Mostly Cloudy
4:15 AM 24.1 °F 19.7 °F 19.9 °F 84% 30.07 in 10.0 mi WSW 3.5 mph - N/A   Scattered Clouds
4:53 AM 19.0 °F 13.9 °F 16.0 °F 88% 30.21 in 10.0 mi WSW 3.5 mph - N/A   Clear
5:53 AM 18.0 °F 9.8 °F 15.1 °F 88% 30.22 in 10.0 mi South 5.8 mph - N/A   Clear
6:53 AM 18.0 °F 9.8 °F 14.0 °F 84% 30.23 in 10.0 mi SSW 5.8 mph - N/A   Clear
7:53 AM 23.0 °F 18.4 °F 19.0 °F 85% 30.24 in 10.0 mi South 3.5 mph - N/A   Clear
8:53 AM 28.0 °F 22.8 °F 21.0 °F 75% 30.22 in 10.0 mi SSE 4.6 mph - N/A   Clear
9:53 AM 33.1 °F 28.7 °F 19.0 °F 56% 30.20 in 10.0 mi SE 4.6 mph - N/A   Clear
10:53 AM 37.0 °F 33.3 °F 14.0 °F 39% 30.18 in 10.0 mi SE 4.6 mph - N/A   Clear
11:53 AM 37.9 °F 32.7 °F 12.9 °F 36% 30.16 in 10.0 mi SE 6.9 mph - N/A   Clear
12:53 PM 39.0 °F 32.8 °F 12.9 °F 34% 30.12 in 10.0 mi SE 9.2 mph - N/A   Clear
1:53 PM 39.9 °F 32.9 °F 15.1 °F 36% 30.10 in 10.0 mi SE 11.5 mph - N/A   Clear
2:53 PM 39.9 °F 32.5 °F 17.1 °F 40% 30.09 in 10.0 mi SE 12.7 mph - N/A   Clear
3:53 PM 37.9 °F 30.9 °F 19.0 °F 47% 30.10 in 10.0 mi SSE 10.4 mph - N/A   Clear
4:53 PM 32.0 °F 25.6 °F 19.0 °F 59% 30.14 in 10.0 mi SSE 6.9 mph - N/A   Clear
5:53 PM 28.0 °F 21.7 °F 17.1 °F 63% 30.15 in 10.0 mi SSE 5.8 mph - N/A   Clear
6:53 PM 21.9 °F 13.4 °F 16.0 °F 78% 30.17 in 10.0 mi South 6.9 mph - N/A   Clear
7:53 PM 28.0 °F 22.8 °F 14.0 °F 56% 30.14 in 10.0 mi SSE 4.6 mph - N/A   Clear
8:53 PM 21.0 °F - 14.0 °F 74% 30.15 in 10.0 mi Calm Calm - N/A   Clear
9:53 PM 19.0 °F - 14.0 °F 81% 30.15 in 10.0 mi Calm Calm - N/A   Clear
10:53 PM 21.0 °F - 14.0 °F 74% 30.14 in 10.0 mi Calm Calm - N/A   Clear
11:53 PM 19.9 °F 14.9 °F 15.1 °F 81% 30.14 in 10.0 mi WSW 3.5 mph - N/A   Scattered Clouds